Погода в Отрожках

Россия / Волгоградская область     49°34′08″N   42°50′57″E
темп.,
°C
ветер,
м/с
пор.,
м/с
влажн.,
%
обл.,
%
осадки,
мм/ч
давл.,
гПа
погр.,
м
12 мая, ср
ср1200:00+8в51480100 0.0 1021320
03:00+8в2280100 0.0 102143
06:00+8св4128086 0.0 1021350
09:00+14вюв4658100 0.0 1020708
12:00+18вюв47445 0.0 10191958
15:00+19юв684138 0.0 10182109
18:00+18юв575020 0.0 1018537
21:00+14вюв48626 0.0 1018121
13 мая, чт
чт1300:00+12в22784 0.0 101826
03:00+11св228760 0.0 101719
06:00+13с118497 0.0 101627
09:00+19всв12695 0.0 1015422
12:00+23юв244927 0.0 10151744
15:00+25ю454094 0.0 10152530
18:00+23ююв225585 0.0 101533
21:00+20ю1160100 0.0 101613
14 мая, пт
пт1400:00+18юв227085 0.0 101613
03:00+16вюв3376100 0.0 101628
06:00+17в277486 0.0 1016182
09:00+23вюв46580 0.0 1016507
12:00+27юв664311 0.0 10151088
15:00+28ююв78397 0.0 10151484
18:00+27юв484873 0.0 1014259
21:00+22юв4135984 0.0 1014272
15 мая, сб
сб1500:00+21юв6163511 0.0 1014427
03:00+18ююв51534100 0.0 1014389
06:00+18юв41544100 0.0 1015381
09:00+23ююв7143519 0.0 1015651
12:00+28ююв8122718 0.0 10151297
15:00+29ююв811275 0.0 10141755
18:00+26ююз47435 0.0 1013232
21:00+21ю115215 0.0 101411
16 мая, вс
вс1600:00+19ююв4105233 0.0 1014183
03:00+17ююв3848100 0.0 1014143
06:00+17ююв3857100 0.0 1014193
09:00+24ююв59401 0.0 1014556
12:00+28ююв69315 0.0 10141483
15:00+29юв67285 0.0 10131902
18:00+27в34415 0.0 1012120
21:00+22в37484 0.0 101297